星链-11317 (STARLINK-11317)

导读

STARLINK-11317是美国太空探索技术公司Starlink星链互联网项目的卫星,于2024年9月25日发射升空,属于星链星座扩容的组成部分。星链项目旨在通过近地轨道卫星群,为全球提供高速互联网接入服务,该卫星的入轨进一步扩充了星链星座的服务覆盖与网络容量。

基本信息
目录编号:
61248
目录名称:
STARLINK-11317
国际标识:
2024-175F
轨道中心:
EARTH
卫星名称:
星链-11317
卫星全名:
星链-11317 (STARLINK-11317)
卫星状态:
在轨 (已飞行716 天)
发射日期:
2024-09-25 UTC
国别 :
美国 (US)
星等 :
--
该卫星已列入 空间交会检测服务 Space Conjunction Data Service (SCDS) ,当前飞行风险评估等级: 无高风险
轨道信息
数据来源 国际轨道数据 AOE轨道数据
星历时间 2026-09-09T23:41:09+0800
1天前
查看轨道信息
2026-09-09T22:00:00+0800
1天前
查看轨道信息
半长轴 6737.895km 6737.878km
偏心率 0.0000996 0.0001497
轨道倾角 53.160° 53.156°
近地点辐角 81.555° 97.157°
升交点赤经 229.128° 229.480°
平近点角 278.558° 225.844°
近地点 359.086km 358.732km
远地点 360.43km 360.75km
周期 91.737分钟 91.737分钟
每日圈数 15.696994 15.697052
详细信息
固有亮度:
5
最大亮度:
2.5
卫星平台:
Starlink V1.0
覆盖范围:
全球
运营商:
太空探索技术公司
运营商所在国:
美国
制造商(研发单位):
太空探索技术公司
制造商所在国:
美国
使用方式:
暂无
卫星简介
Starlink 计划是 SpaceX 推出的全球卫星互联网项目,通过发射低轨道卫星,为全球尤其是偏远地区提供高速、低延迟的互联网服务。自 2019 年起,Starlink 已部署数千颗卫星,旨在缩小全球数字鸿沟,推动互联网普及。该项目还为军事、航空等行业提供通信支持,带来广泛经济效益。
2D轨道图
3D轨道图
轨道高度分析图
轨道倾角分析图
轨道综合分析图
查看轨道综合分析图
交会数据列表
事件ID 空间交会对象 最接近时刻(TCA) 交会距离 交会风险概率(CRP) 交会风险指数(CRI) 操作
CDM_260912-045506-124806-258921
2026-09-12T
04:55:55+0000
2.026 km
极远距离
2.244556E-6 低风险 0.42
CDM_260913-002006-124806-178021
2026-09-13T
00:20:51+0000
2.185 km
极远距离
1.853846E-6 低风险 0.4
与全量物体交会距离演化趋势
与全量物体交会风险概率演化趋势